Regional Weather Roundup
Issued by NWS

Home | Current Version | Previous Version | Text Only | Print | Product List | Glossary On
Versions: 1 2 3 4 5 6 7 8 9 10 11 12 13 14 15 16 17 18 19 20 21 22 23 24 25 26 27 28 29 30 31 32 33 34 35 36 37 38 39 40 41 42 43 44 45 46 47 48 49 50
000
ASUS44 KMEG 252310
RWRTN
TENNESSEE HOURLY STATE WEATHER ROUNDUP
NATIONAL WEATHER SERVICE MEMPHIS TN
600 PM CDT WED MAY 25 2016

TNZ002-004-019-021-049-052-054-088>092-260000-
WEST TENNESSEE

CITY           SKY/WX    TMP DP  RH WIND       PRES   REMARKS
MEMPHIS INTL   CLOUDY    74  68  81 E7        30.05R
NWS MEMPHIS      N/A     68 N/A N/A MISG        N/A
JACKSON        LGT RAIN  67  65  93 S17G26    30.01F
DYERSBURG      CLOUDY    66  64  94 S3        30.06R
UNION CITY     MOSUNNY   70  70 100 S7        30.03R
PARIS            N/A     64  63  94 SE12      30.03F
LEXINGTON      PTSUNNY   68  66  94 S9        30.16
$$

TNZ008-025-027-028-033-062-065-066-260000-
NORTH MIDDLE TENNESSEE

CITY           SKY/WX    TMP DP  RH WIND       PRES   REMARKS
NASHVILLE      CLOUDY    76  64  66 NE10      30.11R
CLARKSVILLE    TSTM      68  66  93 SW13      30.14R FOG
SMYRNA         CLOUDY    84  63  49 S3        30.11R
COOKEVILLE     MOSUNNY   82  63  51 SW6       30.12F
CROSSVILLE     CLOUDY    77  60  55 S5        30.18F
$$

TNZ061-075-076-078-094-096-097-260000-
SOUTH MIDDLE TENNESSEE

CITY           SKY/WX    TMP DP  RH WIND       PRES   REMARKS
FAYETTEVILLE   SUNNY     82  59  44 SW6       30.13R
TULLAHOMA      SUNNY     81  57  44 S6        30.14R
WINCHESTER     MOSUNNY   84  59  42 S7        30.13S
MCMINNVILLE    MOSUNNY   84  63  48 VRB3      30.13S
COLUMBIA       MOSUNNY   82  64  54 S7        30.10R
SHELBYVILLE    SUNNY     84  63  48 S8        30.13R
$$

TNZ017-018-042-046-047-260000-
NORTHEAST TENNESSEE

CITY           SKY/WX    TMP DP  RH WIND       PRES   REMARKS
TRI CITIES     CLOUDY    80  58  46 W8        30.17F
$$

TNZ012-013-036-069-073-074-260000-
CENTRAL EAST TENNESSEE

CITY           SKY/WX    TMP DP  RH WIND       PRES   REMARKS
KNOXVILLE      PTSUNNY   82  58  43 W8        30.14F
OAK RIDGE      MOSUNNY   83  60  45 CALM      30.16F
GATLINBURG     PTSUNNY   81  57  44 W5        30.15S
$$

TNZ083-085-099-260000-
SOUTHEAST TENNESSEE

CITY           SKY/WX    TMP DP  RH WIND       PRES   REMARKS
CHATTANOOGA    PTSUNNY   86  55  34 S7        30.12S
$$

SKY/WX REPORTED AS FAIR MEANS FEW OR NO CLOUDS BELOW
12 THOUSAND FEET.





USA.gov is the U.S. government's official web portal to all federal, state and local government web resources and services.